Powrót do katalogu

THORAD AGENA D DEB

AktywnyLEO
NORAD 4738·DEBRIS·🇺🇸 United States

Wystrzelony Apr 8, 1970 z Vandenberg Space Force Base

Loading…

Następne Przeloty (najbliższe 24 godziny)

TLE

ŚwieżeSource: Space-Track

Epoka: Sep 14, 2026, 07:12 UTC

1 04738U 70025CM  26257.30060148  .00001475  00000-0  74754-3 0  9997
2 04738 100.1087 273.6374 0046506  31.9252 328.4722 14.17411204852969

Śledź THORAD AGENA D DEB w czasie rzeczywistym z AllMySat

Download on the App Store